Location: Mexico
(19.4000°N, 99.1500°W)
Time: 10:14:07
(UTC-06:00)

ISS - Pass Details

Date: 15 August 2017
Orbit: 401 x 408 km, 51.6° (Epoch: 19 August)

Event Time Altitude Azimuth Distance (km) Brightness Sun altitude
Rises 20:48:58 0° 312° (NW) 2,301 1.3 -24.0°
Reaches altitude 10° 20:51:07 10° 304° (NW) 1,442 0.0 -24.5°
Enters shadow 20:53:10 30° 276° (W) 749 -1.9 -24.9°
